Time,TemperatureF,DewpointF,PressureIn,WindDirection,WindDirectionDegrees,WindSpeedMPH,WindSpeedGustMPH,Humidity,HourlyPrecipIn,Conditions,Clouds,dailyrainin,SoftwareType,DateUTC
2013-08-06 00:00:00,56.0,39.0,29.92,SSE,161,2.0,6.0,53,0.00,,,0.01,,2013-08-06 08:00:00,
2013-08-06 00:43:00,56.0,39.0,29.92,SSE,161,2.0,6.0,53,0.00,,,0.01,,2013-08-06 08:43:00,
2013-08-06 00:52:00,56.0,39.0,29.92,SSE,161,2.0,6.0,53,0.00,,,0.01,,2013-08-06 08:52:00,
2013-08-06 01:00:00,55.0,38.0,29.93,NE,35,0.0,6.0,52,0.00,,,0.01,,2013-08-06 09:00:00,
2013-08-06 01:43:00,55.0,38.0,29.93,NE,35,0.0,6.0,52,0.00,,,0.01,,2013-08-06 09:43:00,
2013-08-06 01:52:00,55.0,38.0,29.93,NE,35,0.0,6.0,52,0.00,,,0.01,,2013-08-06 09:52:00,
2013-08-06 02:00:00,55.0,38.0,29.94,ENE,58,1.0,2.0,53,0.00,,,0.00,,2013-08-06 10:00:00,
2013-08-06 02:43:00,55.0,38.0,29.94,ENE,58,1.0,2.0,53,0.00,,,0.00,,2013-08-06 10:43:00,
2013-08-06 02:53:00,55.0,38.0,29.94,ENE,58,1.0,2.0,53,0.00,,,0.00,,2013-08-06 10:53:00,
2013-08-06 03:00:00,54.0,38.0,29.94,NE,53,1.0,3.0,55,0.00,,,0.00,,2013-08-06 11:00:00,
2013-08-06 03:32:00,54.0,38.0,29.94,NE,53,1.0,3.0,55,0.00,,,0.00,,2013-08-06 11:32:00,
2013-08-06 03:43:00,54.0,38.0,29.94,NE,53,1.0,3.0,55,0.00,,,0.00,,2013-08-06 11:43:00,
2013-08-06 03:53:00,54.0,38.0,29.94,NE,53,1.0,3.0,55,0.00,,,0.00,,2013-08-06 11:53:00,
2013-08-06 04:00:00,53.0,37.0,29.94,NE,51,1.0,5.0,55,0.00,,,0.00,,2013-08-06 12:00:00,
2013-08-06 04:43:00,53.0,37.0,29.94,NE,51,1.0,5.0,55,0.00,,,0.00,,2013-08-06 12:43:00,
2013-08-06 04:52:00,53.0,37.0,29.94,NE,51,1.0,5.0,55,0.00,,,0.00,,2013-08-06 12:52:00,
2013-08-06 05:00:00,54.0,37.0,29.94,WNW,291,0.0,3.0,52,0.00,,,0.00,,2013-08-06 13:00:00,
2013-08-06 05:42:00,54.0,37.0,29.94,WNW,291,0.0,3.0,52,0.00,,,0.00,,2013-08-06 13:42:00,
2013-08-06 05:53:00,54.0,37.0,29.94,WNW,291,0.0,3.0,52,0.00,,,0.00,,2013-08-06 13:53:00,
2013-08-06 06:00:00,54.0,38.0,29.95,North,351,3.0,6.0,54,0.00,,,0.00,,2013-08-06 14:00:00,
2013-08-06 06:42:00,54.0,38.0,29.95,North,351,3.0,6.0,54,0.00,,,0.00,,2013-08-06 14:42:00,
2013-08-06 06:53:00,54.0,38.0,29.95,North,351,3.0,6.0,54,0.00,,,0.00,,2013-08-06 14:53:00,
2013-08-06 07:00:00,57.0,40.0,29.94,North,4,5.0,10.0,53,0.00,,,0.00,,2013-08-06 15:00:00,
2013-08-06 07:33:00,57.0,40.0,29.94,North,4,5.0,10.0,53,0.00,,,0.00,,2013-08-06 15:33:00,
2013-08-06 07:44:00,57.0,40.0,29.94,North,4,5.0,10.0,53,0.00,,,0.00,,2013-08-06 15:44:00,
2013-08-06 07:52:00,57.0,40.0,29.94,North,4,5.0,10.0,53,0.00,,,0.00,,2013-08-06 15:52:00,
2013-08-06 08:00:00,59.0,44.0,29.94,NNE,22,5.0,11.0,58,0.00,,,0.00,,2013-08-06 16:00:00,
2013-08-06 08:43:00,59.0,44.0,29.94,NNE,22,5.0,11.0,58,0.00,,,0.00,,2013-08-06 16:43:00,
2013-08-06 08:52:00,59.0,44.0,29.94,NNE,22,5.0,11.0,58,0.00,,,0.00,,2013-08-06 16:52:00,
2013-08-06 09:00:00,63.0,43.0,29.94,East,79,6.0,12.0,48,0.00,,,0.00,,2013-08-06 17:00:00,
2013-08-06 09:44:00,63.0,43.0,29.94,East,79,6.0,12.0,48,0.00,,,0.00,,2013-08-06 17:44:00,
2013-08-06 09:52:00,63.0,43.0,29.94,East,79,6.0,12.0,48,0.00,,,0.00,,2013-08-06 17:52:00,
2013-08-06 10:00:00,64.0,42.0,29.93,East,92,10.0,21.0,45,0.00,,,-99.99,,2013-08-06 18:00:00,
2013-08-06 10:43:00,64.0,42.0,29.93,East,92,10.0,21.0,45,0.00,,,-99.99,,2013-08-06 18:43:00,
2013-08-06 10:52:00,64.0,42.0,29.93,East,92,10.0,21.0,45,0.00,,,-99.99,,2013-08-06 18:52:00,
2013-08-06 11:00:00,67.0,41.0,29.93,East,90,9.0,20.0,39,0.00,,,0.00,,2013-08-06 19:00:00,
2013-08-06 11:42:00,67.0,41.0,29.93,East,90,9.0,20.0,39,0.00,,,0.00,,2013-08-06 19:42:00,
2013-08-06 11:52:00,67.0,41.0,29.93,East,90,9.0,20.0,39,0.00,,,0.00,,2013-08-06 19:52:00,
2013-08-06 12:00:00,71.0,39.0,29.90,East,84,11.0,19.0,32,0.00,,,0.00,,2013-08-06 20:00:00,
2013-08-06 12:44:00,71.0,39.0,29.90,East,84,11.0,19.0,32,0.00,,,0.00,,2013-08-06 20:44:00,
2013-08-06 12:52:00,71.0,39.0,29.90,East,84,11.0,19.0,32,0.00,,,0.00,,2013-08-06 20:52:00,
2013-08-06 13:00:00,74.0,40.0,29.90,East,79,10.0,23.0,30,0.00,,,0.00,,2013-08-06 21:00:00,
2013-08-06 13:43:00,74.0,40.0,29.90,East,79,10.0,23.0,30,0.00,,,0.00,,2013-08-06 21:43:00,
2013-08-06 13:52:00,74.0,40.0,29.90,East,79,10.0,23.0,30,0.00,,,0.00,,2013-08-06 21:52:00,
2013-08-06 14:00:00,74.0,40.0,29.89,East,87,8.0,20.0,30,0.00,,,0.00,,2013-08-06 22:00:00,
2013-08-06 14:43:00,74.0,40.0,29.89,East,87,8.0,20.0,30,0.00,,,0.00,,2013-08-06 22:43:00,
2013-08-06 14:53:00,74.0,40.0,29.89,East,87,8.0,20.0,30,0.00,,,0.00,,2013-08-06 22:53:00,
2013-08-06 15:00:00,75.0,40.0,29.89,East,90,8.0,18.0,29,0.00,,,0.00,,2013-08-06 23:00:00,
2013-08-06 15:33:00,75.0,40.0,29.89,East,90,8.0,18.0,29,0.00,,,0.00,,2013-08-06 23:33:00,
2013-08-06 15:43:00,75.0,40.0,29.89,East,90,8.0,18.0,29,0.00,,,0.00,,2013-08-06 23:43:00,
2013-08-06 15:52:00,75.0,40.0,29.89,East,90,8.0,18.0,29,0.00,,,0.00,,2013-08-06 23:52:00,
2013-08-06 16:00:00,75.0,39.0,29.87,East,91,6.0,18.0,27,0.00,,,0.00,,2013-08-07 00:00:00,
2013-08-06 16:43:00,75.0,39.0,29.87,East,91,6.0,18.0,27,0.00,,,0.00,,2013-08-07 00:43:00,
2013-08-06 16:52:00,75.0,39.0,29.87,East,91,6.0,18.0,27,0.00,,,0.00,,2013-08-07 00:52:00,
2013-08-06 17:00:00,74.0,36.0,29.87,East,80,6.0,14.0,25,0.00,,,0.00,,2013-08-07 01:00:00,
2013-08-06 17:43:00,74.0,36.0,29.87,East,80,6.0,14.0,25,0.00,,,0.00,,2013-08-07 01:43:00,
2013-08-06 17:52:00,74.0,36.0,29.87,East,80,6.0,14.0,25,0.00,,,0.00,,2013-08-07 01:52:00,
2013-08-06 18:00:00,74.0,37.0,29.86,ESE,118,5.0,15.0,26,0.00,,,0.00,,2013-08-07 02:00:00,
2013-08-06 18:43:00,74.0,37.0,29.86,ESE,118,5.0,15.0,26,0.00,,,0.00,,2013-08-07 02:43:00,
2013-08-06 18:53:00,74.0,37.0,29.86,ESE,118,5.0,15.0,26,0.00,,,0.00,,2013-08-07 02:53:00,
2013-08-06 19:00:00,73.0,36.0,29.85,ESE,102,5.0,12.0,26,0.00,,,0.00,,2013-08-07 03:00:00,
2013-08-06 19:32:00,73.0,36.0,29.85,ESE,102,5.0,12.0,26,0.00,,,0.00,,2013-08-07 03:32:00,
2013-08-06 19:43:00,73.0,36.0,29.85,ESE,102,5.0,12.0,26,0.00,,,0.00,,2013-08-07 03:43:00,
2013-08-06 19:52:00,73.0,36.0,29.85,ESE,102,5.0,12.0,26,0.00,,,0.00,,2013-08-07 03:52:00,
2013-08-06 20:00:00,70.0,36.0,29.85,East,93,4.0,9.0,29,0.00,,,0.00,,2013-08-07 04:00:00,
2013-08-06 20:33:00,70.0,36.0,29.85,East,93,4.0,9.0,29,0.00,,,0.00,,2013-08-07 04:33:00,
2013-08-06 20:43:00,70.0,36.0,29.85,East,93,4.0,9.0,29,0.00,,,0.00,,2013-08-07 04:43:00,
2013-08-06 20:52:00,70.0,36.0,29.85,East,93,4.0,9.0,29,0.00,,,0.00,,2013-08-07 04:52:00,
2013-08-06 21:00:00,67.0,37.0,29.85,ENE,63,3.0,6.0,33,0.00,,,0.00,,2013-08-07 05:00:00,
2013-08-06 21:32:00,67.0,37.0,29.85,ENE,63,3.0,6.0,33,0.00,,,0.00,,2013-08-07 05:32:00,
2013-08-06 21:43:00,67.0,37.0,29.85,ENE,63,3.0,6.0,33,0.00,,,0.00,,2013-08-07 05:43:00,
2013-08-06 21:52:00,67.0,37.0,29.85,ENE,63,3.0,6.0,33,0.00,,,0.00,,2013-08-07 05:52:00,
2013-08-06 22:00:00,64.0,36.0,29.84,ENE,69,4.0,7.0,36,0.00,,,0.00,,2013-08-07 06:00:00,
2013-08-06 22:43:00,64.0,36.0,29.84,ENE,69,4.0,7.0,36,0.00,,,0.00,,2013-08-07 06:43:00,
2013-08-06 22:52:00,64.0,36.0,29.84,ENE,69,4.0,7.0,36,0.00,,,0.00,,2013-08-07 06:52:00,
2013-08-06 23:00:00,62.0,35.0,29.84,ENE,60,4.0,8.0,37,0.00,,,0.00,,2013-08-07 07:00:00,
2013-08-06 23:33:00,62.0,35.0,29.84,ENE,60,4.0,8.0,37,0.00,,,0.00,,2013-08-07 07:33:00,
2013-08-06 23:43:00,62.0,35.0,29.84,ENE,60,4.0,8.0,37,0.00,,,0.00,,2013-08-07 07:43:00,
2013-08-06 23:52:00,62.0,35.0,29.84,ENE,60,4.0,8.0,37,0.00,,,0.00,,2013-08-07 07:52:00,